EW9504 Weather Reports


time (UTC)temp
C
wind
direction
speed
KPH
gust
KPH
rain 1hr
cm
rain 24hr
cm
rain mn
cm
humidity
%
barometer
mb
20260502163014 21 16 0.0 11.3 0.00 6.68 0.00 66 1019.6
20260502161513 20 35 1.6 6.4 0.00 6.68 0.00 67 1019.6
20260502151503 18 358 4.8 16.1 0.00 6.73 0.00 74 1019.4
20260502123036 12 31 0.0 0.0 0.00 7.06 0.00 94 1017.8
20260502121535 11 174 0.0 0.0 0.00 7.06 0.00 95 1017.5
20260502114530 11 335 0.0 4.8 0.00 7.06 0.00 94 1017.1
20260502113029 11 13 0.0 1.6 0.00 7.06 0.00 94 1017.0
20260502111527 11 13 0.0 0.0 0.00 7.06 0.00 94 1017.1
20260502110025 11 13 0.0 0.0 0.00 7.06 0.00 94 1016.9
20260502104527 12 23 0.0 0.0 0.00 7.16 0.00 93 1016.7
20260502103022 12 23 0.0 0.0 0.00 7.16 0.00 92 1016.4
20260502101520 12 32 0.0 0.0 0.00 7.16 0.00 91 1016.3
20260502091515 13 335 0.0 16.1 0.00 7.44 0.00 89 1015.1
20260502071506 13 92 3.2 12.9 0.00 8.00 0.00 94 1014.8
20260502070006 13 359 3.2 9.7 0.00 8.00 0.00 94 1014.9
20260502064505 13 32 1.6 9.7 0.00 8.43 0.00 96 1014.9
20260502063001 13 339 1.6 8.0 0.00 8.43 0.00 97 1014.8
20260502061601 13 357 1.6 9.7 0.00 8.43 0.00 98 1014.7
20260502060104 13 332 1.6 11.3 0.00 8.43 0.00 99 1014.6
20260502054614 13 330 3.2 16.1 0.00 8.89 0.00 99 1014.5
20260502053056 13 340 0.0 14.5 0.00 8.89 0.00 99 1014.6
20260502051555 13 32 3.2 14.5 0.00 8.89 0.00 99 1014.4
20260502050053 13 39 3.2 14.5 0.00 8.89 0.00 99 1014.3
20260502044551 12 37 4.8 16.1 0.00 9.98 8.89 99 1014.2
20260502043106 13 360 3.2 12.9 0.00 9.98 8.89 99 1014.3
20260502041612 12 32 1.6 19.3 0.00 9.98 8.89 99 1014.6
20260502040053 13 84 1.6 14.5 0.00 9.98 8.89 99 1014.3
20260502034547 13 17 1.6 8.0 0.00 9.98 8.89 99 1014.3
20260502033043 13 337 1.6 6.4 0.00 9.98 8.89 99 1014.2
20260502031541 13 59 3.2 12.9 0.00 9.98 8.89 99 1013.7
20260502030052 13 349 3.2 12.9 0.00 9.98 8.89 99 1013.5
20260502024537 13 92 3.2 14.5 0.03 9.98 8.89 99 1012.8
20260502023046 13 62 9.7 19.3 0.05 9.98 8.89 99 1012.5
20260502021530 14 108 6.4 14.5 0.10 9.98 8.89 99 1012.1
20260502020028 14 12 1.6 9.7 0.13 9.98 8.89 99 1012.1
20260502014531 14 25 0.0 11.3 0.18 9.96 8.86 99 1012.1
20260502013026 14 359 0.0 6.4 0.15 9.93 8.84 99 1012.0
20260502011523 14 70 3.2 9.7 0.15 9.91 8.81 99 1011.8
20260502010024 15 51 3.2 12.9 0.18 9.88 8.79 99 1011.1
20260502004620 15 20 1.6 6.4 0.30 9.80 8.71 99 1011.2
20260502003020 15 13 1.6 8.0 0.58 9.78 8.69 99 1010.8
20260502001519 15 343 1.6 9.7 0.56 9.75 8.66 99 1010.5
20260502000018 15 357 3.2 11.3 0.58 9.73 8.64 99 1010.5
20260501234517 15 20 1.6 11.3 0.51 9.55 8.46 99 1010.6
20260501233015 15 340 3.2 9.7 0.15 9.19 8.10 99 1010.3
20260501231515 15 110 4.8 19.3 0.15 9.19 8.10 99 1008.4
20260501230031 15 79 3.2 14.5 0.10 9.14 8.05 99 1009.8
20260501224512 15 70 4.8 14.5 0.05 9.07 7.98 99 1009.1
20260501223018 16 52 9.7 20.9 0.30 9.04 7.95 99 1009.0
20260501221510 16 50 4.8 17.7 1.04 9.04 7.95 99 1008.3
20260501220009 16 7 4.8 14.5 1.50 9.04 7.95 99 1008.9
20260501214507 16 129 6.4 16.1 1.57 9.02 7.92 99 1009.2
20260501213007 16 73 3.2 12.9 1.45 8.81 7.72 99 1009.4
20260501211507 16 58 4.8 12.9 0.91 8.10 7.01 99 1009.1
20260501210006 16 34 1.6 8.0 0.61 7.59 6.50 99 1009.2
20260501204505 16 20 3.2 17.7 0.51 7.47 6.35 99 1007.8
20260501203009 16 53 6.4 14.5 0.41 7.37 6.27 99 1007.9
20260501201502 16 28 4.8 11.3 0.28 7.21 6.12 99 1008.2
20260501200001 16 4 1.6 11.3 0.41 6.99 5.87 99 1008.2
20260501194502 16 3 3.2 11.3 0.43 6.96 5.87 99 1007.6
20260501193002 16 335 4.8 17.7 0.46 6.96 5.87 99 1007.6
20260501191601 16 15 1.6 12.9 1.55 6.93 5.82 99 1007.7
20260501190100 16 8 3.2 16.1 1.50 6.68 5.59 99 1008.0
20260501184559 16 8 3.2 16.1 1.80 6.53 5.44 99 1007.6
20260501183058 16 299 4.8 19.3 2.11 6.53 5.44 99 1007.1
20260501181558 17 151 8.0 12.9 1.45 5.66 4.57 99 1009.5
20260501180056 17 128 1.6 11.3 1.07 5.18 4.11 99 1007.3
20260501174555 17 27 1.6 8.0 0.89 4.93 3.84 99 1008.1
20260501173107 17 1 3.2 16.1 0.43 4.45 3.35 99 1008.9